Current weather by "City, St" or "zip code"  
 

Current Conditions: Pontiac Municipal Airport, IL

Overcast


53.0 F

Last Updated on Oct 21 2021, 11:55 am CDT
Humidity: 67%
Wind Speed: W 18.4 G 24.2 mph
Barometer 29.96 in
Dewpoint: 42.1 F
Visibility: 10.00 mi
Precip: --
Heat Index: NA
Wind Chill: 48 F
Current conditions at:

Pontiac Municipal Airport, IL (KPNT)

Lat: 40.92327 Lon: 88.6213

Local Radar Image active severe weather and emergency alerts image image weather storm and storm spotter reports image weather observation monitoring service image
Local
Radar
Active
Alerts
Storm Reports Obs
Monitoring

Sign-up For Email & Text Message Weather Alert Notification Services



Advertise Here

Observation History for Pontiac Municipal Airport, IL


Time Wind
(mph)
Vis
(mi)
Weather Precip (in) Temperature (F) Relative
Humidity
Wind
Chill
(F)
Heat
Index
(F)
Pressure
Air Dwpt altimeter
(in)
sea level
(mb)
Rmks
11:55 am CDT W 18.4 G 24.2 10.00 Overcast -- 53.0 42.1 67% 48 NA 29.96 M
10:55 am CDT W 21.9 10.00 Overcast and Breezy -- 51.0 41.4 69% 45 NA 29.95 M
9:55 am CDT W 19.6 G 24.2 10.00 Overcast -- 51.0 41.0 70% 45 NA 29.93 M
8:55 am CDT W 10.4 10.00 Overcast -- 51.0 43.7 77% 47 NA 29.92 M
8:35 am CDT W 12.7 10.00 Overcast -- 51.0 43.5 76% 46 NA 29.92 M
7:55 am CDT W 11.5 10.00 Overcast -- 51.0 46.4 84% 47 NA 29.91 M
6:55 am CDT SW 9.2 10.00 Overcast -- 51.0 46.4 85% 48 NA 29.90 M
5:55 am CDT W 12.7 10.00 Partly Cloudy -- 49.0 45.9 88% 44 NA 29.90 M
4:55 am CDT SW 10.4 10.00 Fair -- 51.0 45.9 84% 47 NA 29.90 M
3:55 am CDT W 6.9 10.00 Fair -- 52.0 46.4 81% 50 NA 29.90 M
2:55 am CDT W 11.5 10.00 Overcast -- 56.0 47.3 74% 53 NA 29.90 M
1:55 am CDT W 17.3 G 20.7 10.00 Overcast -- 59.0 48.7 69% 56 NA 29.90 M
12:55 am CDT W 16.1 10.00 Overcast -- 63.0 57.2 81% 61 NA 29.89 M
11:55 pm CDT W 15.0 G 21.9 10.00 Overcast -- 66.0 61.7 85% NA NA 29.89 M
10:55 pm CDT SW 10.4 G 20.7 10.00 Overcast -- 68.0 59.9 75% NA NA 29.90 M
9:55 pm CDT SW 12.7 10.00 Overcast -- 68.0 55.9 65% NA NA 29.90 M
8:55 pm CDT S 9.2 10.00 Overcast -- 68.0 55.8 65% NA NA 29.90 M
7:55 pm CDT S 10.4 10.00 Mostly Cloudy -- 67.0 55.0 65% NA NA 29.92 M
6:55 pm CDT S 9.2 10.00 Partly Cloudy -- 68.0 54.0 61% NA NA 29.93 M
5:55 pm CDT S 9.2 10.00 Fair -- 71.0 52.0 52% NA NA 29.92 M
4:55 pm CDT S 12.7 10.00 Partly Cloudy -- 73.0 49.8 45% NA NA 29.92 M
3:55 pm CDT S 15.0 G 20.7 10.00 Partly Cloudy -- 75.0 47.8 38% NA NA 29.93 M
2:55 pm CDT S 8.1 10.00 Fair -- 74.0 46.8 38% NA NA 29.95 M
1:55 pm CDT S 12.7 10.00 Fair -- 74.0 49.1 41% NA NA 29.98 M

Regional Weather Observation


Morris Muni-James R Washburn Field Airport, IL (KC09)

Overcast
51.0 F

Illinois Valley Regional Airport, IL (KVYS)

Overcast
51.0 F

Marshall County Airport, IL (KC75)

Overcast
49.0 F

Joliet Regional Airport, IL (KJOT)

Overcast
51.0 F

Aurora Municipal Airport, IL (KARR)

Overcast
49.0 F

Lewis University Airport, IL (KLOT)

Overcast
47.0 F

Advertise Here


Advertise Here